Miscellaneous Local Product
Issued by NWS Hastings, NE

Home | Current Version | Previous Version | Graphics & Text | Print | Product List | Glossary On
Versions: 1 2 3 4 5 6 7 8 9 10 11 12 13 14 15 16 17 18 19 20 21 22 23 24 25 26 27 28 29 30 31 32 33 34 35 36 37 38 39 40 41 42 43 44 45 46 47 48 49 50
000
AXUS43 KGID 260102
MISGRI

GID CWA HOURLY WEATHER ROUNDUP
NATIONAL WEATHER SERVICE HASTINGS NE
700 PM CST SUN JAN 25 2015

NOTE: "FAIR" INDICATES FEW OR NO CLOUDS BELOW 12,000 FEET WITH NO
SIGNIFICANT WEATHER AND/OR OBSTRUCTIONS TO VISIBILITY.

...SOUTH CENTRAL NEBRASKA...

CITY           SKY/WX    TMP DP  RH WIND       PRES   REMARKS
GRAND ISLAND   CLEAR     30  24  78 CALM      30.08F
HASTINGS       CLEAR     33  25  72 CALM      30.08S
KEARNEY        CLEAR     32  25  74 E5        30.07F WCI  27
ORD            CLEAR     29  24  82 CALM      30.05S
YORK           CLOUDY    36  32  87 NW5       30.09S WCI  32
AURORA         PTCLDY    31  26  80 W7        30.07F WCI  25
LEXINGTON      CLEAR     32  26  78 S5        30.06S WCI  27
HOLDREGE       CLEAR     34  24  66 E3        30.07S
HEBRON         PTCLDY    34  28  78 CALM      30.11R

...NEBRASKA PANHANDLE...

CITY           SKY/WX    TMP DP  RH WIND       PRES   REMARKS
CHADRON        CLOUDY    41  33  73 SW8       30.01S
ALLIANCE       MOCLDY    37  31  78 W8        30.04R WCI  31
SCOTTSBLUFF    PTCLDY    44  33  65 W9        30.08R
SIDNEY         CLEAR     41  29  62 W13       30.10R

...WESTERN AND NORTH CENTRAL NEBRASKA...

CITY           SKY/WX    TMP DP  RH WIND       PRES   REMARKS
VALENTINE      CLOUDY    36  27  69 S3        30.00R
AINSWORTH      MOCLDY    31  27  84 S3        30.02R
ONEILL         CLEAR     37  32  84 CALM      30.04S
BROKEN BOW     CLEAR     28  23  81 CALM      30.04S
IMPERIAL       CLOUDY    47  32  56 W5        30.08R
NORTH PLATTE   PTCLDY    32  21  64 CALM      30.04F
MCCOOK         CLEAR     43  19  38 S7        30.07S

...EASTERN NEBRASKA...

CITY           SKY/WX    TMP DP  RH WIND       PRES   REMARKS
NORFOLK        MOCLDY    33  30  88 SW3       30.05S
SO SIOUX CITY  CLOUDY    36  32  85 W7        30.06S WCI  30
TEKAMAH        CLOUDY    36  32  85 W6        30.08S WCI  31
COLUMBUS       CLOUDY    36  28  75 W3        30.09S
ALBION         MOCLDY    34  31  88 CALM      30.06F
OMAHA EPPLEY   CLOUDY    37  32  82 CALM      30.08S
OFFUTT AFB     CLOUDY    37  30  77 NW5       30.07S WCI  33
MILLARD        CLOUDY    38  33  80 NW5       30.08S WCI  35
LINCOLN        CLOUDY    38  31  76 CALM      30.10S
NEBRASKA CITY  CLOUDY    37  25  61 N3        30.08S
BEATRICE       CLOUDY    36  31  81 N3        30.09S
FALLS CITY     MOCLDY    36  29  75 N5        30.09R WCI  32

...NORTHERN KANSAS...

CITY           SKY/WX    TMP DP  RH WIND       PRES   REMARKS
GOODLAND       CLEAR     40  31  70 CALM      30.13R
HILL CITY      PTCLDY    33  20  58 CALM      30.11R
NORTON         CLEAR     36  19  51 CALM      30.08
PHILLIPSBURG   CLEAR     43  27  52 NE5       30.10S
SMITH CENTER   CLEAR     36  25  64 NE6       30.11S WCI  31
BELOIT         CLEAR     30  23  74 N3        30.12R
HAYS           CLEAR     37  18  44 CALM      30.12R
RUSSELL        CLEAR     34  24  67 E3        30.11R
CONCORDIA      PTCLDY    37  30  75 N5        30.11R WCI  33
SALINA         PTCLDY    38  29  70 N7        30.14R WCI  33
TOPEKA         CLOUDY    40  30  67 N9        30.11R WCI  34



USA.gov is the U.S. government's official web portal to all federal, state and local government web resources and services.